Index of /20260426/WXO-DD/model_rdps/10km/06/009
Name Last modified Size Description
Parent Directory -
20260426T06Z_MSC_RDPS_AbsoluteVorticity_IsbL-0250_RLatLon0.09_PT009H.grib2 2026-04-26 08:41 609K
20260426T06Z_MSC_RDPS_AbsoluteVorticity_IsbL-0500_RLatLon0.09_PT009H.grib2 2026-04-26 08:41 565K
20260426T06Z_MSC_RDPS_AbsoluteVorticity_IsbL-0700_RLatLon0.09_PT009H.grib2 2026-04-26 08:41 626K
20260426T06Z_MSC_RDPS_AbsoluteVorticity_IsbL-0850_RLatLon0.09_PT009H.grib2 2026-04-26 08:41 786K
20260426T06Z_MSC_RDPS_AirTemp_AGL-120m_RLatLon0.09_PT009H.grib2 2026-04-26 08:41 401K
20260426T06Z_MSC_RDPS_AirTemp_AGL-2m_RLatLon0.09_PT009H.grib2 2026-04-26 08:41 640K
20260426T06Z_MSC_RDPS_AirTemp_AGL-40m_RLatLon0.09_PT009H.grib2 2026-04-26 08:41 411K
20260426T06Z_MSC_RDPS_AirTemp_AGL-80m_RLatLon0.09_PT009H.grib2 2026-04-26 08:41 407K
20260426T06Z_MSC_RDPS_AirTemp_IsbL-0001_RLatLon0.09_PT009H.grib2 2026-04-26 08:41 274K
20260426T06Z_MSC_RDPS_AirTemp_IsbL-0005_RLatLon0.09_PT009H.grib2 2026-04-26 08:41 327K
20260426T06Z_MSC_RDPS_AirTemp_IsbL-0010_RLatLon0.09_PT009H.grib2 2026-04-26 08:41 299K
20260426T06Z_MSC_RDPS_AirTemp_IsbL-0020_RLatLon0.09_PT009H.grib2 2026-04-26 08:41 317K
20260426T06Z_MSC_RDPS_AirTemp_IsbL-0030_RLatLon0.09_PT009H.grib2 2026-04-26 08:41 337K
20260426T06Z_MSC_RDPS_AirTemp_IsbL-0050_RLatLon0.09_PT009H.grib2 2026-04-26 08:41 318K
20260426T06Z_MSC_RDPS_AirTemp_IsbL-0100_RLatLon0.09_PT009H.grib2 2026-04-26 08:41 418K
20260426T06Z_MSC_RDPS_AirTemp_IsbL-0150_RLatLon0.09_PT009H.grib2 2026-04-26 08:41 415K
20260426T06Z_MSC_RDPS_AirTemp_IsbL-0175_RLatLon0.09_PT009H.grib2 2026-04-26 08:42 408K
20260426T06Z_MSC_RDPS_AirTemp_IsbL-0200_RLatLon0.09_PT009H.grib2 2026-04-26 08:42 416K
20260426T06Z_MSC_RDPS_AirTemp_IsbL-0225_RLatLon0.09_PT009H.grib2 2026-04-26 08:42 418K
20260426T06Z_MSC_RDPS_AirTemp_IsbL-0250_RLatLon0.09_PT009H.grib2 2026-04-26 08:42 425K
20260426T06Z_MSC_RDPS_AirTemp_IsbL-0275_RLatLon0.09_PT009H.grib2 2026-04-26 08:42 404K
20260426T06Z_MSC_RDPS_AirTemp_IsbL-0300_RLatLon0.09_PT009H.grib2 2026-04-26 08:42 412K
20260426T06Z_MSC_RDPS_AirTemp_IsbL-0350_RLatLon0.09_PT009H.grib2 2026-04-26 08:42 422K
20260426T06Z_MSC_RDPS_AirTemp_IsbL-0400_RLatLon0.09_PT009H.grib2 2026-04-26 08:42 422K
20260426T06Z_MSC_RDPS_AirTemp_IsbL-0450_RLatLon0.09_PT009H.grib2 2026-04-26 08:42 429K
20260426T06Z_MSC_RDPS_AirTemp_IsbL-0500_RLatLon0.09_PT009H.grib2 2026-04-26 08:42 441K
20260426T06Z_MSC_RDPS_AirTemp_IsbL-0550_RLatLon0.09_PT009H.grib2 2026-04-26 08:42 426K
20260426T06Z_MSC_RDPS_AirTemp_IsbL-0600_RLatLon0.09_PT009H.grib2 2026-04-26 08:42 444K
20260426T06Z_MSC_RDPS_AirTemp_IsbL-0650_RLatLon0.09_PT009H.grib2 2026-04-26 08:42 459K
20260426T06Z_MSC_RDPS_AirTemp_IsbL-0700_RLatLon0.09_PT009H.grib2 2026-04-26 08:42 483K
20260426T06Z_MSC_RDPS_AirTemp_IsbL-0750_RLatLon0.09_PT009H.grib2 2026-04-26 08:42 411K
20260426T06Z_MSC_RDPS_AirTemp_IsbL-0800_RLatLon0.09_PT009H.grib2 2026-04-26 08:42 458K
20260426T06Z_MSC_RDPS_AirTemp_IsbL-0850_RLatLon0.09_PT009H.grib2 2026-04-26 08:42 509K
20260426T06Z_MSC_RDPS_AirTemp_IsbL-0875_RLatLon0.09_PT009H.grib2 2026-04-26 08:42 524K
20260426T06Z_MSC_RDPS_AirTemp_IsbL-0900_RLatLon0.09_PT009H.grib2 2026-04-26 08:42 531K
20260426T06Z_MSC_RDPS_AirTemp_IsbL-0925_RLatLon0.09_PT009H.grib2 2026-04-26 08:42 530K
20260426T06Z_MSC_RDPS_AirTemp_IsbL-0950_RLatLon0.09_PT009H.grib2 2026-04-26 08:42 533K
20260426T06Z_MSC_RDPS_AirTemp_IsbL-0970_RLatLon0.09_PT009H.grib2 2026-04-26 08:42 532K
20260426T06Z_MSC_RDPS_AirTemp_IsbL-0985_RLatLon0.09_PT009H.grib2 2026-04-26 08:42 525K
20260426T06Z_MSC_RDPS_AirTemp_IsbL-1000_RLatLon0.09_PT009H.grib2 2026-04-26 08:42 505K
20260426T06Z_MSC_RDPS_AirTemp_IsbL-1015_RLatLon0.09_PT009H.grib2 2026-04-26 08:42 499K
20260426T06Z_MSC_RDPS_Albedo_Sfc_RLatLon0.09_PT009H.grib2 2026-04-26 08:42 166K
20260426T06Z_MSC_RDPS_CAPE_Sfc_RLatLon0.09_PT009H.grib2 2026-04-26 08:42 1.8M
20260426T06Z_MSC_RDPS_CIN_Sfc_RLatLon0.09_PT009H.grib2 2026-04-26 08:42 1.1M
20260426T06Z_MSC_RDPS_CloudWater_EAtm_RLatLon0.09_PT009H.grib2 2026-04-26 08:42 216K
20260426T06Z_MSC_RDPS_ConvectivePrecip-Accum_Sfc_RLatLon0.09_PT009H.grib2 2026-04-26 08:42 563K
20260426T06Z_MSC_RDPS_DewPointDepression_AGL-2m_RLatLon0.09_PT009H.grib2 2026-04-26 08:42 415K
20260426T06Z_MSC_RDPS_DewPointDepression_IsbL-0001_RLatLon0.09_PT009H.grib2 2026-04-26 08:42 193
20260426T06Z_MSC_RDPS_DewPointDepression_IsbL-0005_RLatLon0.09_PT009H.grib2 2026-04-26 08:42 193
20260426T06Z_MSC_RDPS_DewPointDepression_IsbL-0010_RLatLon0.09_PT009H.grib2 2026-04-26 08:42 193
20260426T06Z_MSC_RDPS_DewPointDepression_IsbL-0020_RLatLon0.09_PT009H.grib2 2026-04-26 08:42 193
20260426T06Z_MSC_RDPS_DewPointDepression_IsbL-0030_RLatLon0.09_PT009H.grib2 2026-04-26 08:42 193
20260426T06Z_MSC_RDPS_DewPointDepression_IsbL-0050_RLatLon0.09_PT009H.grib2 2026-04-26 08:42 93K
20260426T06Z_MSC_RDPS_DewPointDepression_IsbL-0100_RLatLon0.09_PT009H.grib2 2026-04-26 08:42 126K
20260426T06Z_MSC_RDPS_DewPointDepression_IsbL-0150_RLatLon0.09_PT009H.grib2 2026-04-26 08:42 146K
20260426T06Z_MSC_RDPS_DewPointDepression_IsbL-0175_RLatLon0.09_PT009H.grib2 2026-04-26 08:42 183K
20260426T06Z_MSC_RDPS_DewPointDepression_IsbL-0200_RLatLon0.09_PT009H.grib2 2026-04-26 08:42 223K
20260426T06Z_MSC_RDPS_DewPointDepression_IsbL-0225_RLatLon0.09_PT009H.grib2 2026-04-26 08:42 259K
20260426T06Z_MSC_RDPS_DewPointDepression_IsbL-0250_RLatLon0.09_PT009H.grib2 2026-04-26 08:42 302K
20260426T06Z_MSC_RDPS_DewPointDepression_IsbL-0275_RLatLon0.09_PT009H.grib2 2026-04-26 08:42 313K
20260426T06Z_MSC_RDPS_DewPointDepression_IsbL-0300_RLatLon0.09_PT009H.grib2 2026-04-26 08:42 332K
20260426T06Z_MSC_RDPS_DewPointDepression_IsbL-0350_RLatLon0.09_PT009H.grib2 2026-04-26 08:42 334K
20260426T06Z_MSC_RDPS_DewPointDepression_IsbL-0400_RLatLon0.09_PT009H.grib2 2026-04-26 08:42 342K
20260426T06Z_MSC_RDPS_DewPointDepression_IsbL-0450_RLatLon0.09_PT009H.grib2 2026-04-26 08:42 349K
20260426T06Z_MSC_RDPS_DewPointDepression_IsbL-0500_RLatLon0.09_PT009H.grib2 2026-04-26 08:42 356K
20260426T06Z_MSC_RDPS_DewPointDepression_IsbL-0550_RLatLon0.09_PT009H.grib2 2026-04-26 08:42 372K
20260426T06Z_MSC_RDPS_DewPointDepression_IsbL-0600_RLatLon0.09_PT009H.grib2 2026-04-26 08:42 379K
20260426T06Z_MSC_RDPS_DewPointDepression_IsbL-0650_RLatLon0.09_PT009H.grib2 2026-04-26 08:42 379K
20260426T06Z_MSC_RDPS_DewPointDepression_IsbL-0700_RLatLon0.09_PT009H.grib2 2026-04-26 08:42 391K
20260426T06Z_MSC_RDPS_DewPointDepression_IsbL-0750_RLatLon0.09_PT009H.grib2 2026-04-26 08:42 415K
20260426T06Z_MSC_RDPS_DewPointDepression_IsbL-0800_RLatLon0.09_PT009H.grib2 2026-04-26 08:42 448K
20260426T06Z_MSC_RDPS_DewPointDepression_IsbL-0850_RLatLon0.09_PT009H.grib2 2026-04-26 08:42 476K
20260426T06Z_MSC_RDPS_DewPointDepression_IsbL-0875_RLatLon0.09_PT009H.grib2 2026-04-26 08:42 475K
20260426T06Z_MSC_RDPS_DewPointDepression_IsbL-0900_RLatLon0.09_PT009H.grib2 2026-04-26 08:42 466K
20260426T06Z_MSC_RDPS_DewPointDepression_IsbL-0925_RLatLon0.09_PT009H.grib2 2026-04-26 08:42 457K
20260426T06Z_MSC_RDPS_DewPointDepression_IsbL-0950_RLatLon0.09_PT009H.grib2 2026-04-26 08:42 450K
20260426T06Z_MSC_RDPS_DewPointDepression_IsbL-0970_RLatLon0.09_PT009H.grib2 2026-04-26 08:42 445K
20260426T06Z_MSC_RDPS_DewPointDepression_IsbL-0985_RLatLon0.09_PT009H.grib2 2026-04-26 08:42 442K
20260426T06Z_MSC_RDPS_DewPointDepression_IsbL-1000_RLatLon0.09_PT009H.grib2 2026-04-26 08:42 435K
20260426T06Z_MSC_RDPS_DewPointDepression_IsbL-1015_RLatLon0.09_PT009H.grib2 2026-04-26 08:42 427K
20260426T06Z_MSC_RDPS_DewPoint_AGL-2m_RLatLon0.09_PT009H.grib2 2026-04-26 08:42 404K
20260426T06Z_MSC_RDPS_DownwardLongwaveRadiationFlux-Accum_Sfc_RLatLon0.09_PT009H.grib2 2026-04-26 08:42 447K
20260426T06Z_MSC_RDPS_DownwardShortwaveRadiationFlux-Accum_NTAtm_RLatLon0.09_PT009H.grib2 2026-04-26 08:42 88K
20260426T06Z_MSC_RDPS_DownwardShortwaveRadiationFlux-Accum_Sfc_RLatLon0.09_PT009H.grib2 2026-04-26 08:42 359K
20260426T06Z_MSC_RDPS_FreezingRain-Accum1h_Sfc_RLatLon0.09_PT009H.grib2 2026-04-26 08:42 37K
20260426T06Z_MSC_RDPS_FreezingRain-Accum3h_Sfc_RLatLon0.09_PT009H.grib2 2026-04-26 08:42 60K
20260426T06Z_MSC_RDPS_FreezingRain-Accum_Sfc_RLatLon0.09_PT009H.grib2 2026-04-26 08:42 93K
20260426T06Z_MSC_RDPS_GeopotentialHeight_IsbL-0001_RLatLon0.09_PT009H.grib2 2026-04-26 08:42 276K
20260426T06Z_MSC_RDPS_GeopotentialHeight_IsbL-0005_RLatLon0.09_PT009H.grib2 2026-04-26 08:42 310K
20260426T06Z_MSC_RDPS_GeopotentialHeight_IsbL-0010_RLatLon0.09_PT009H.grib2 2026-04-26 08:42 307K
20260426T06Z_MSC_RDPS_GeopotentialHeight_IsbL-0020_RLatLon0.09_PT009H.grib2 2026-04-26 08:42 306K
20260426T06Z_MSC_RDPS_GeopotentialHeight_IsbL-0030_RLatLon0.09_PT009H.grib2 2026-04-26 08:42 405K
20260426T06Z_MSC_RDPS_GeopotentialHeight_IsbL-0050_RLatLon0.09_PT009H.grib2 2026-04-26 08:42 309K
20260426T06Z_MSC_RDPS_GeopotentialHeight_IsbL-0100_RLatLon0.09_PT009H.grib2 2026-04-26 08:42 287K
20260426T06Z_MSC_RDPS_GeopotentialHeight_IsbL-0150_RLatLon0.09_PT009H.grib2 2026-04-26 08:42 227K
20260426T06Z_MSC_RDPS_GeopotentialHeight_IsbL-0175_RLatLon0.09_PT009H.grib2 2026-04-26 08:42 229K
20260426T06Z_MSC_RDPS_GeopotentialHeight_IsbL-0200_RLatLon0.09_PT009H.grib2 2026-04-26 08:42 232K
20260426T06Z_MSC_RDPS_GeopotentialHeight_IsbL-0225_RLatLon0.09_PT009H.grib2 2026-04-26 08:42 265K
20260426T06Z_MSC_RDPS_GeopotentialHeight_IsbL-0250_RLatLon0.09_PT009H.grib2 2026-04-26 08:42 267K
20260426T06Z_MSC_RDPS_GeopotentialHeight_IsbL-0275_RLatLon0.09_PT009H.grib2 2026-04-26 08:42 235K
20260426T06Z_MSC_RDPS_GeopotentialHeight_IsbL-0300_RLatLon0.09_PT009H.grib2 2026-04-26 08:42 235K
20260426T06Z_MSC_RDPS_GeopotentialHeight_IsbL-0350_RLatLon0.09_PT009H.grib2 2026-04-26 08:42 231K
20260426T06Z_MSC_RDPS_GeopotentialHeight_IsbL-0400_RLatLon0.09_PT009H.grib2 2026-04-26 08:42 228K
20260426T06Z_MSC_RDPS_GeopotentialHeight_IsbL-0450_RLatLon0.09_PT009H.grib2 2026-04-26 08:42 296K
20260426T06Z_MSC_RDPS_GeopotentialHeight_IsbL-0500_RLatLon0.09_PT009H.grib2 2026-04-26 08:42 291K
20260426T06Z_MSC_RDPS_GeopotentialHeight_IsbL-0550_RLatLon0.09_PT009H.grib2 2026-04-26 08:42 287K
20260426T06Z_MSC_RDPS_GeopotentialHeight_IsbL-0600_RLatLon0.09_PT009H.grib2 2026-04-26 08:42 285K
20260426T06Z_MSC_RDPS_GeopotentialHeight_IsbL-0650_RLatLon0.09_PT009H.grib2 2026-04-26 08:42 282K
20260426T06Z_MSC_RDPS_GeopotentialHeight_IsbL-0700_RLatLon0.09_PT009H.grib2 2026-04-26 08:42 280K
20260426T06Z_MSC_RDPS_GeopotentialHeight_IsbL-0750_RLatLon0.09_PT009H.grib2 2026-04-26 08:42 278K
20260426T06Z_MSC_RDPS_GeopotentialHeight_IsbL-0800_RLatLon0.09_PT009H.grib2 2026-04-26 08:42 260K
20260426T06Z_MSC_RDPS_GeopotentialHeight_IsbL-0850_RLatLon0.09_PT009H.grib2 2026-04-26 08:42 268K
20260426T06Z_MSC_RDPS_GeopotentialHeight_IsbL-0875_RLatLon0.09_PT009H.grib2 2026-04-26 08:42 272K
20260426T06Z_MSC_RDPS_GeopotentialHeight_IsbL-0900_RLatLon0.09_PT009H.grib2 2026-04-26 08:42 275K
20260426T06Z_MSC_RDPS_GeopotentialHeight_IsbL-0925_RLatLon0.09_PT009H.grib2 2026-04-26 08:42 278K
20260426T06Z_MSC_RDPS_GeopotentialHeight_IsbL-0950_RLatLon0.09_PT009H.grib2 2026-04-26 08:42 281K
20260426T06Z_MSC_RDPS_GeopotentialHeight_IsbL-0970_RLatLon0.09_PT009H.grib2 2026-04-26 08:42 312K
20260426T06Z_MSC_RDPS_GeopotentialHeight_IsbL-0985_RLatLon0.09_PT009H.grib2 2026-04-26 08:42 319K
20260426T06Z_MSC_RDPS_GeopotentialHeight_IsbL-1000_RLatLon0.09_PT009H.grib2 2026-04-26 08:42 330K
20260426T06Z_MSC_RDPS_GeopotentialHeight_IsbL-1015_RLatLon0.09_PT009H.grib2 2026-04-26 08:42 341K
20260426T06Z_MSC_RDPS_Humidex_Sfc_RLatLon0.09_PT009H.grib2 2026-04-26 08:42 2.4M
20260426T06Z_MSC_RDPS_IcePellets-Accum1h_Sfc_RLatLon0.09_PT009H.grib2 2026-04-26 08:42 14K
20260426T06Z_MSC_RDPS_IcePellets-Accum3h_Sfc_RLatLon0.09_PT009H.grib2 2026-04-26 08:42 16K
20260426T06Z_MSC_RDPS_IcePellets-Accum_Sfc_RLatLon0.09_PT009H.grib2 2026-04-26 08:42 23K
20260426T06Z_MSC_RDPS_KIndex_Sfc_RLatLon0.09_PT009H.grib2 2026-04-26 08:42 2.3M
20260426T06Z_MSC_RDPS_LatentHeatNetFlux_Sfc_RLatLon0.09_PT009H.grib2 2026-04-26 08:42 374K
20260426T06Z_MSC_RDPS_LiftedIndex-MU-VT_IsbL-0500_RLatLon0.09_PT009H.grib2 2026-04-26 08:42 2.4M
20260426T06Z_MSC_RDPS_NetLongwaveRadiationFlux-Accum_Sfc_RLatLon0.09_PT009H.grib2 2026-04-26 08:42 579K
20260426T06Z_MSC_RDPS_NetShortwaveRadiationFlux-Accum_Sfc_RLatLon0.09_PT009H.grib2 2026-04-26 08:42 347K
20260426T06Z_MSC_RDPS_PlanetaryBoundaryLayerHeight_Sfc_RLatLon0.09_PT009H.grib2 2026-04-26 08:42 1.2M
20260426T06Z_MSC_RDPS_Precip-Accum1h_Sfc_RLatLon0.09_PT009H.grib2 2026-04-26 08:42 1.3M
20260426T06Z_MSC_RDPS_Precip-Accum3h_Sfc_RLatLon0.09_PT009H.grib2 2026-04-26 08:42 1.4M
20260426T06Z_MSC_RDPS_Precip-Accum_Sfc_RLatLon0.09_PT009H.grib2 2026-04-26 08:42 1.6M
20260426T06Z_MSC_RDPS_PrecipRate_Sfc_RLatLon0.09_PT009H.grib2 2026-04-26 08:42 188K
20260426T06Z_MSC_RDPS_PrecipType-Instant_Sfc_RLatLon0.09_PT009H.grib2 2026-04-26 08:42 604K
20260426T06Z_MSC_RDPS_Pressure-Trend3h_Sfc_RLatLon0.09_PT009H.grib2 2026-04-26 08:42 1.2M
20260426T06Z_MSC_RDPS_Pressure_MSL_RLatLon0.09_PT009H.grib2 2026-04-26 08:42 240K
20260426T06Z_MSC_RDPS_Pressure_PVU-1.5_RLatLon0.09_PT009H.grib2 2026-04-26 08:42 2.3M
20260426T06Z_MSC_RDPS_Pressure_PVU-1_RLatLon0.09_PT009H.grib2 2026-04-26 08:42 2.4M
20260426T06Z_MSC_RDPS_Pressure_PVU-2_RLatLon0.09_PT009H.grib2 2026-04-26 08:42 2.4M
20260426T06Z_MSC_RDPS_Pressure_Sfc_RLatLon0.09_PT009H.grib2 2026-04-26 08:42 500K
20260426T06Z_MSC_RDPS_RadiativeTemp_Sfc_RLatLon0.09_PT009H.grib2 2026-04-26 08:42 316K
20260426T06Z_MSC_RDPS_Rain-Accum1h_Sfc_RLatLon0.09_PT009H.grib2 2026-04-26 08:42 605K
20260426T06Z_MSC_RDPS_Rain-Accum3h_Sfc_RLatLon0.09_PT009H.grib2 2026-04-26 08:42 696K
20260426T06Z_MSC_RDPS_Rain-Accum_Sfc_RLatLon0.09_PT009H.grib2 2026-04-26 08:42 1.1M
20260426T06Z_MSC_RDPS_RelativeHumidity_AGL-2m_RLatLon0.09_PT009H.grib2 2026-04-26 08:42 1.0M
20260426T06Z_MSC_RDPS_RelativeHumidity_IsbL-0010_RLatLon0.09_PT009H.grib2 2026-04-26 08:42 634K
20260426T06Z_MSC_RDPS_RelativeHumidity_IsbL-0020_RLatLon0.09_PT009H.grib2 2026-04-26 08:42 659K
20260426T06Z_MSC_RDPS_RelativeHumidity_IsbL-0030_RLatLon0.09_PT009H.grib2 2026-04-26 08:42 542K
20260426T06Z_MSC_RDPS_RelativeHumidity_IsbL-0050_RLatLon0.09_PT009H.grib2 2026-04-26 08:42 327K
20260426T06Z_MSC_RDPS_RelativeHumidity_IsbL-0100_RLatLon0.09_PT009H.grib2 2026-04-26 08:42 374K
20260426T06Z_MSC_RDPS_RelativeHumidity_IsbL-0150_RLatLon0.09_PT009H.grib2 2026-04-26 08:42 398K
20260426T06Z_MSC_RDPS_RelativeHumidity_IsbL-0175_RLatLon0.09_PT009H.grib2 2026-04-26 08:42 472K
20260426T06Z_MSC_RDPS_RelativeHumidity_IsbL-0200_RLatLon0.09_PT009H.grib2 2026-04-26 08:42 554K
20260426T06Z_MSC_RDPS_RelativeHumidity_IsbL-0225_RLatLon0.09_PT009H.grib2 2026-04-26 08:42 623K
20260426T06Z_MSC_RDPS_RelativeHumidity_IsbL-0250_RLatLon0.09_PT009H.grib2 2026-04-26 08:42 699K
20260426T06Z_MSC_RDPS_RelativeHumidity_IsbL-0275_RLatLon0.09_PT009H.grib2 2026-04-26 08:42 729K
20260426T06Z_MSC_RDPS_RelativeHumidity_IsbL-0300_RLatLon0.09_PT009H.grib2 2026-04-26 08:42 773K
20260426T06Z_MSC_RDPS_RelativeHumidity_IsbL-0350_RLatLon0.09_PT009H.grib2 2026-04-26 08:42 789K
20260426T06Z_MSC_RDPS_RelativeHumidity_IsbL-0400_RLatLon0.09_PT009H.grib2 2026-04-26 08:42 796K
20260426T06Z_MSC_RDPS_RelativeHumidity_IsbL-0450_RLatLon0.09_PT009H.grib2 2026-04-26 08:42 802K
20260426T06Z_MSC_RDPS_RelativeHumidity_IsbL-0500_RLatLon0.09_PT009H.grib2 2026-04-26 08:42 811K
20260426T06Z_MSC_RDPS_RelativeHumidity_IsbL-0550_RLatLon0.09_PT009H.grib2 2026-04-26 08:42 841K
20260426T06Z_MSC_RDPS_RelativeHumidity_IsbL-0600_RLatLon0.09_PT009H.grib2 2026-04-26 08:42 861K
20260426T06Z_MSC_RDPS_RelativeHumidity_IsbL-0650_RLatLon0.09_PT009H.grib2 2026-04-26 08:42 872K
20260426T06Z_MSC_RDPS_RelativeHumidity_IsbL-0700_RLatLon0.09_PT009H.grib2 2026-04-26 08:42 897K
20260426T06Z_MSC_RDPS_RelativeHumidity_IsbL-0750_RLatLon0.09_PT009H.grib2 2026-04-26 08:42 944K
20260426T06Z_MSC_RDPS_RelativeHumidity_IsbL-0800_RLatLon0.09_PT009H.grib2 2026-04-26 08:42 1.0M
20260426T06Z_MSC_RDPS_RelativeHumidity_IsbL-0850_RLatLon0.09_PT009H.grib2 2026-04-26 08:42 1.1M
20260426T06Z_MSC_RDPS_RelativeHumidity_IsbL-0875_RLatLon0.09_PT009H.grib2 2026-04-26 08:42 1.1M
20260426T06Z_MSC_RDPS_RelativeHumidity_IsbL-0900_RLatLon0.09_PT009H.grib2 2026-04-26 08:42 1.1M
20260426T06Z_MSC_RDPS_RelativeHumidity_IsbL-0925_RLatLon0.09_PT009H.grib2 2026-04-26 08:42 1.1M
20260426T06Z_MSC_RDPS_RelativeHumidity_IsbL-0950_RLatLon0.09_PT009H.grib2 2026-04-26 08:42 1.1M
20260426T06Z_MSC_RDPS_RelativeHumidity_IsbL-0970_RLatLon0.09_PT009H.grib2 2026-04-26 08:42 1.1M
20260426T06Z_MSC_RDPS_RelativeHumidity_IsbL-0985_RLatLon0.09_PT009H.grib2 2026-04-26 08:42 1.1M
20260426T06Z_MSC_RDPS_RelativeHumidity_IsbL-1000_RLatLon0.09_PT009H.grib2 2026-04-26 08:42 1.0M
20260426T06Z_MSC_RDPS_RelativeHumidity_IsbL-1015_RLatLon0.09_PT009H.grib2 2026-04-26 08:42 1.0M
20260426T06Z_MSC_RDPS_Runoff-Accum_Sfc_RLatLon0.09_PT009H.grib2 2026-04-26 08:42 29K
20260426T06Z_MSC_RDPS_SWEATIndex_Sfc_RLatLon0.09_PT009H.grib2 2026-04-26 08:42 2.4M
20260426T06Z_MSC_RDPS_SeeingIndex_EAtm_RLatLon0.09_PT009H.grib2 2026-04-26 08:42 1.0M
20260426T06Z_MSC_RDPS_SensibleHeatNetFlux_Sfc_RLatLon0.09_PT009H.grib2 2026-04-26 08:42 355K
20260426T06Z_MSC_RDPS_ShowalterIndex_IsbL-0500_RLatLon0.09_PT009H.grib2 2026-04-26 08:42 2.6M
20260426T06Z_MSC_RDPS_SkyTransparencyIndex_EAtm_RLatLon0.09_PT009H.grib2 2026-04-26 08:42 726K
20260426T06Z_MSC_RDPS_Snow-Accum1h_Sfc_RLatLon0.09_PT009H.grib2 2026-04-26 08:42 430K
20260426T06Z_MSC_RDPS_Snow-Accum3h_Sfc_RLatLon0.09_PT009H.grib2 2026-04-26 08:42 446K
20260426T06Z_MSC_RDPS_Snow-Accum_Sfc_RLatLon0.09_PT009H.grib2 2026-04-26 08:42 662K
20260426T06Z_MSC_RDPS_SnowDensity_Sfc_RLatLon0.09_PT009H.grib2 2026-04-26 08:42 181K
20260426T06Z_MSC_RDPS_SnowDepth_Sfc_RLatLon0.09_PT009H.grib2 2026-04-26 08:42 730K
20260426T06Z_MSC_RDPS_SoilTemp_DBS-0to10cm_RLatLon0.09_PT009H.grib2 2026-04-26 08:42 202K
20260426T06Z_MSC_RDPS_SoilTemp_Sfc_RLatLon0.09_PT009H.grib2 2026-04-26 08:42 282K
20260426T06Z_MSC_RDPS_SoilVolumetricIceContent_Sfc_RLatLon0.09_PT009H.grib2 2026-04-26 08:42 170K
20260426T06Z_MSC_RDPS_SoilVolumetricWaterContent_DBS-0to10cm_RLatLon0.09_PT009H.grib2 2026-04-26 08:42 256K
20260426T06Z_MSC_RDPS_SoilVolumetricWaterContent_DBS-0to1cm_RLatLon0.09_PT009H.grib2 2026-04-26 08:42 335K
20260426T06Z_MSC_RDPS_SpecificHumidity_AGL-120m_RLatLon0.09_PT009H.grib2 2026-04-26 08:42 494K
20260426T06Z_MSC_RDPS_SpecificHumidity_AGL-2m_RLatLon0.09_PT009H.grib2 2026-04-26 08:42 660K
20260426T06Z_MSC_RDPS_SpecificHumidity_AGL-40m_RLatLon0.09_PT009H.grib2 2026-04-26 08:42 498K
20260426T06Z_MSC_RDPS_SpecificHumidity_AGL-80m_RLatLon0.09_PT009H.grib2 2026-04-26 08:42 496K
20260426T06Z_MSC_RDPS_SpecificHumidity_IsbL-0001_RLatLon0.09_PT009H.grib2 2026-04-26 08:42 342K
20260426T06Z_MSC_RDPS_SpecificHumidity_IsbL-0005_RLatLon0.09_PT009H.grib2 2026-04-26 08:42 355K
20260426T06Z_MSC_RDPS_SpecificHumidity_IsbL-0010_RLatLon0.09_PT009H.grib2 2026-04-26 08:42 396K
20260426T06Z_MSC_RDPS_SpecificHumidity_IsbL-0020_RLatLon0.09_PT009H.grib2 2026-04-26 08:42 388K
20260426T06Z_MSC_RDPS_SpecificHumidity_IsbL-0030_RLatLon0.09_PT009H.grib2 2026-04-26 08:42 481K
20260426T06Z_MSC_RDPS_SpecificHumidity_IsbL-0050_RLatLon0.09_PT009H.grib2 2026-04-26 08:42 478K
20260426T06Z_MSC_RDPS_SpecificHumidity_IsbL-0100_RLatLon0.09_PT009H.grib2 2026-04-26 08:42 418K
20260426T06Z_MSC_RDPS_SpecificHumidity_IsbL-0150_RLatLon0.09_PT009H.grib2 2026-04-26 08:42 475K
20260426T06Z_MSC_RDPS_SpecificHumidity_IsbL-0175_RLatLon0.09_PT009H.grib2 2026-04-26 08:42 538K
20260426T06Z_MSC_RDPS_SpecificHumidity_IsbL-0200_RLatLon0.09_PT009H.grib2 2026-04-26 08:42 555K
20260426T06Z_MSC_RDPS_SpecificHumidity_IsbL-0225_RLatLon0.09_PT009H.grib2 2026-04-26 08:42 558K
20260426T06Z_MSC_RDPS_SpecificHumidity_IsbL-0250_RLatLon0.09_PT009H.grib2 2026-04-26 08:42 564K
20260426T06Z_MSC_RDPS_SpecificHumidity_IsbL-0275_RLatLon0.09_PT009H.grib2 2026-04-26 08:42 480K
20260426T06Z_MSC_RDPS_SpecificHumidity_IsbL-0300_RLatLon0.09_PT009H.grib2 2026-04-26 08:42 553K
20260426T06Z_MSC_RDPS_SpecificHumidity_IsbL-0350_RLatLon0.09_PT009H.grib2 2026-04-26 08:42 539K
20260426T06Z_MSC_RDPS_SpecificHumidity_IsbL-0400_RLatLon0.09_PT009H.grib2 2026-04-26 08:42 515K
20260426T06Z_MSC_RDPS_SpecificHumidity_IsbL-0450_RLatLon0.09_PT009H.grib2 2026-04-26 08:42 566K
20260426T06Z_MSC_RDPS_SpecificHumidity_IsbL-0500_RLatLon0.09_PT009H.grib2 2026-04-26 08:42 503K
20260426T06Z_MSC_RDPS_SpecificHumidity_IsbL-0550_RLatLon0.09_PT009H.grib2 2026-04-26 08:42 560K
20260426T06Z_MSC_RDPS_SpecificHumidity_IsbL-0600_RLatLon0.09_PT009H.grib2 2026-04-26 08:42 627K
20260426T06Z_MSC_RDPS_SpecificHumidity_IsbL-0650_RLatLon0.09_PT009H.grib2 2026-04-26 08:42 541K
20260426T06Z_MSC_RDPS_SpecificHumidity_IsbL-0700_RLatLon0.09_PT009H.grib2 2026-04-26 08:42 584K
20260426T06Z_MSC_RDPS_SpecificHumidity_IsbL-0750_RLatLon0.09_PT009H.grib2 2026-04-26 08:42 643K
20260426T06Z_MSC_RDPS_SpecificHumidity_IsbL-0800_RLatLon0.09_PT009H.grib2 2026-04-26 08:42 719K
20260426T06Z_MSC_RDPS_SpecificHumidity_IsbL-0850_RLatLon0.09_PT009H.grib2 2026-04-26 08:42 805K
20260426T06Z_MSC_RDPS_SpecificHumidity_IsbL-0875_RLatLon0.09_PT009H.grib2 2026-04-26 08:42 828K
20260426T06Z_MSC_RDPS_SpecificHumidity_IsbL-0900_RLatLon0.09_PT009H.grib2 2026-04-26 08:42 838K
20260426T06Z_MSC_RDPS_SpecificHumidity_IsbL-0925_RLatLon0.09_PT009H.grib2 2026-04-26 08:42 839K
20260426T06Z_MSC_RDPS_SpecificHumidity_IsbL-0950_RLatLon0.09_PT009H.grib2 2026-04-26 08:42 696K
20260426T06Z_MSC_RDPS_SpecificHumidity_IsbL-0970_RLatLon0.09_PT009H.grib2 2026-04-26 08:42 690K
20260426T06Z_MSC_RDPS_SpecificHumidity_IsbL-0985_RLatLon0.09_PT009H.grib2 2026-04-26 08:42 685K
20260426T06Z_MSC_RDPS_SpecificHumidity_IsbL-1000_RLatLon0.09_PT009H.grib2 2026-04-26 08:42 678K
20260426T06Z_MSC_RDPS_SpecificHumidity_IsbL-1015_RLatLon0.09_PT009H.grib2 2026-04-26 08:42 670K
20260426T06Z_MSC_RDPS_SpecificHumidity_Sfc_RLatLon0.09_PT009H.grib2 2026-04-26 08:42 308K
20260426T06Z_MSC_RDPS_StormRelativeHelicity_EtaL-10000_RLatLon0.09_PT009H.grib2 2026-04-26 08:42 1.1M
20260426T06Z_MSC_RDPS_StormSeverityIndex_EtaL-10000_RLatLon0.09_PT009H.grib2 2026-04-26 08:42 1.2M
20260426T06Z_MSC_RDPS_Thickness_IsbL-0850to0700_RLatLon0.09_PT009H.grib2 2026-04-26 08:42 176K
20260426T06Z_MSC_RDPS_Thickness_IsbL-1000to0500_RLatLon0.09_PT009H.grib2 2026-04-26 08:42 204K
20260426T06Z_MSC_RDPS_Thickness_IsbL-1000to0850_RLatLon0.09_PT009H.grib2 2026-04-26 08:42 188K
20260426T06Z_MSC_RDPS_TotalCloudCover_Sfc_RLatLon0.09_PT009H.grib2 2026-04-26 08:42 678K
20260426T06Z_MSC_RDPS_TotalTotalsIndex_Sfc_RLatLon0.09_PT009H.grib2 2026-04-26 08:42 2.4M
20260426T06Z_MSC_RDPS_UVIndex-ClearSky_Sfc_RLatLon0.09_PT009H.grib2 2026-04-26 08:42 180K
20260426T06Z_MSC_RDPS_UVIndex_Sfc_RLatLon0.09_PT009H.grib2 2026-04-26 08:42 418K
20260426T06Z_MSC_RDPS_UpwardLongwaveRadiationFlux_NTAtm_RLatLon0.09_PT009H.grib2 2026-04-26 08:42 492K
20260426T06Z_MSC_RDPS_UpwardShortwaveRadiationFlux_NTAtm_RLatLon0.09_PT009H.grib2 2026-04-26 08:42 472K
20260426T06Z_MSC_RDPS_VerticalVelocity_IsbL-0250_RLatLon0.09_PT009H.grib2 2026-04-26 08:42 429K
20260426T06Z_MSC_RDPS_VerticalVelocity_IsbL-0500_RLatLon0.09_PT009H.grib2 2026-04-26 08:42 536K
20260426T06Z_MSC_RDPS_VerticalVelocity_IsbL-0700_RLatLon0.09_PT009H.grib2 2026-04-26 08:42 590K
20260426T06Z_MSC_RDPS_VerticalVelocity_IsbL-0850_RLatLon0.09_PT009H.grib2 2026-04-26 08:42 699K
20260426T06Z_MSC_RDPS_VerticalWindShear_EtaL-6500_RLatLon0.09_PT009H.grib2 2026-04-26 08:42 1.2M
20260426T06Z_MSC_RDPS_WindChill_Sfc_RLatLon0.09_PT009H.grib2 2026-04-26 08:42 1.2M
20260426T06Z_MSC_RDPS_WindDir_AGL-10m_RLatLon0.09_PT009H.grib2 2026-04-26 08:42 1.0M
20260426T06Z_MSC_RDPS_WindDir_AGL-120m_RLatLon0.09_PT009H.grib2 2026-04-26 08:42 634K
20260426T06Z_MSC_RDPS_WindDir_AGL-40m_RLatLon0.09_PT009H.grib2 2026-04-26 08:42 658K
20260426T06Z_MSC_RDPS_WindDir_AGL-80m_RLatLon0.09_PT009H.grib2 2026-04-26 08:42 644K
20260426T06Z_MSC_RDPS_WindDir_IsbL-0001_RLatLon0.09_PT009H.grib2 2026-04-26 08:42 287K
20260426T06Z_MSC_RDPS_WindDir_IsbL-0005_RLatLon0.09_PT009H.grib2 2026-04-26 08:42 355K
20260426T06Z_MSC_RDPS_WindDir_IsbL-0010_RLatLon0.09_PT009H.grib2 2026-04-26 08:42 379K
20260426T06Z_MSC_RDPS_WindDir_IsbL-0020_RLatLon0.09_PT009H.grib2 2026-04-26 08:42 401K
20260426T06Z_MSC_RDPS_WindDir_IsbL-0030_RLatLon0.09_PT009H.grib2 2026-04-26 08:42 421K
20260426T06Z_MSC_RDPS_WindDir_IsbL-0050_RLatLon0.09_PT009H.grib2 2026-04-26 08:42 444K
20260426T06Z_MSC_RDPS_WindDir_IsbL-0100_RLatLon0.09_PT009H.grib2 2026-04-26 08:42 423K
20260426T06Z_MSC_RDPS_WindDir_IsbL-0150_RLatLon0.09_PT009H.grib2 2026-04-26 08:42 419K
20260426T06Z_MSC_RDPS_WindDir_IsbL-0175_RLatLon0.09_PT009H.grib2 2026-04-26 08:42 439K
20260426T06Z_MSC_RDPS_WindDir_IsbL-0200_RLatLon0.09_PT009H.grib2 2026-04-26 08:42 447K
20260426T06Z_MSC_RDPS_WindDir_IsbL-0225_RLatLon0.09_PT009H.grib2 2026-04-26 08:42 446K
20260426T06Z_MSC_RDPS_WindDir_IsbL-0250_RLatLon0.09_PT009H.grib2 2026-04-26 08:42 451K
20260426T06Z_MSC_RDPS_WindDir_IsbL-0275_RLatLon0.09_PT009H.grib2 2026-04-26 08:42 475K
20260426T06Z_MSC_RDPS_WindDir_IsbL-0300_RLatLon0.09_PT009H.grib2 2026-04-26 08:42 477K
20260426T06Z_MSC_RDPS_WindDir_IsbL-0350_RLatLon0.09_PT009H.grib2 2026-04-26 08:42 497K
20260426T06Z_MSC_RDPS_WindDir_IsbL-0400_RLatLon0.09_PT009H.grib2 2026-04-26 08:42 509K
20260426T06Z_MSC_RDPS_WindDir_IsbL-0450_RLatLon0.09_PT009H.grib2 2026-04-26 08:42 519K
20260426T06Z_MSC_RDPS_WindDir_IsbL-0500_RLatLon0.09_PT009H.grib2 2026-04-26 08:42 537K
20260426T06Z_MSC_RDPS_WindDir_IsbL-0550_RLatLon0.09_PT009H.grib2 2026-04-26 08:42 560K
20260426T06Z_MSC_RDPS_WindDir_IsbL-0600_RLatLon0.09_PT009H.grib2 2026-04-26 08:42 589K
20260426T06Z_MSC_RDPS_WindDir_IsbL-0650_RLatLon0.09_PT009H.grib2 2026-04-26 08:42 637K
20260426T06Z_MSC_RDPS_WindDir_IsbL-0700_RLatLon0.09_PT009H.grib2 2026-04-26 08:42 685K
20260426T06Z_MSC_RDPS_WindDir_IsbL-0750_RLatLon0.09_PT009H.grib2 2026-04-26 08:42 741K
20260426T06Z_MSC_RDPS_WindDir_IsbL-0800_RLatLon0.09_PT009H.grib2 2026-04-26 08:42 820K
20260426T06Z_MSC_RDPS_WindDir_IsbL-0850_RLatLon0.09_PT009H.grib2 2026-04-26 08:42 895K
20260426T06Z_MSC_RDPS_WindDir_IsbL-0875_RLatLon0.09_PT009H.grib2 2026-04-26 08:42 917K
20260426T06Z_MSC_RDPS_WindDir_IsbL-0900_RLatLon0.09_PT009H.grib2 2026-04-26 08:42 927K
20260426T06Z_MSC_RDPS_WindDir_IsbL-0925_RLatLon0.09_PT009H.grib2 2026-04-26 08:42 931K
20260426T06Z_MSC_RDPS_WindDir_IsbL-0950_RLatLon0.09_PT009H.grib2 2026-04-26 08:42 931K
20260426T06Z_MSC_RDPS_WindDir_IsbL-0970_RLatLon0.09_PT009H.grib2 2026-04-26 08:42 937K
20260426T06Z_MSC_RDPS_WindDir_IsbL-0985_RLatLon0.09_PT009H.grib2 2026-04-26 08:42 951K
20260426T06Z_MSC_RDPS_WindDir_IsbL-1000_RLatLon0.09_PT009H.grib2 2026-04-26 08:42 968K
20260426T06Z_MSC_RDPS_WindDir_IsbL-1015_RLatLon0.09_PT009H.grib2 2026-04-26 08:42 1.0M
20260426T06Z_MSC_RDPS_WindGust-Max_AGL-10m_RLatLon0.09_PT009H.grib2 2026-04-26 08:42 1.0M
20260426T06Z_MSC_RDPS_WindGust-Min_AGL-10m_RLatLon0.09_PT009H.grib2 2026-04-26 08:42 1.0M
20260426T06Z_MSC_RDPS_WindGust_AGL-10m_RLatLon0.09_PT009H.grib2 2026-04-26 08:42 1.0M
20260426T06Z_MSC_RDPS_WindSpeed_AGL-10m_RLatLon0.09_PT009H.grib2 2026-04-26 08:42 853K
20260426T06Z_MSC_RDPS_WindSpeed_AGL-120m_RLatLon0.09_PT009H.grib2 2026-04-26 08:42 544K
20260426T06Z_MSC_RDPS_WindSpeed_AGL-40m_RLatLon0.09_PT009H.grib2 2026-04-26 08:42 547K
20260426T06Z_MSC_RDPS_WindSpeed_AGL-80m_RLatLon0.09_PT009H.grib2 2026-04-26 08:42 545K
20260426T06Z_MSC_RDPS_WindSpeed_IsbL-0001_RLatLon0.09_PT009H.grib2 2026-04-26 08:42 249K
20260426T06Z_MSC_RDPS_WindSpeed_IsbL-0005_RLatLon0.09_PT009H.grib2 2026-04-26 08:42 293K
20260426T06Z_MSC_RDPS_WindSpeed_IsbL-0010_RLatLon0.09_PT009H.grib2 2026-04-26 08:42 306K
20260426T06Z_MSC_RDPS_WindSpeed_IsbL-0020_RLatLon0.09_PT009H.grib2 2026-04-26 08:42 324K
20260426T06Z_MSC_RDPS_WindSpeed_IsbL-0030_RLatLon0.09_PT009H.grib2 2026-04-26 08:42 324K
20260426T06Z_MSC_RDPS_WindSpeed_IsbL-0050_RLatLon0.09_PT009H.grib2 2026-04-26 08:42 361K
20260426T06Z_MSC_RDPS_WindSpeed_IsbL-0100_RLatLon0.09_PT009H.grib2 2026-04-26 08:42 433K
20260426T06Z_MSC_RDPS_WindSpeed_IsbL-0150_RLatLon0.09_PT009H.grib2 2026-04-26 08:42 374K
20260426T06Z_MSC_RDPS_WindSpeed_IsbL-0175_RLatLon0.09_PT009H.grib2 2026-04-26 08:42 423K
20260426T06Z_MSC_RDPS_WindSpeed_IsbL-0200_RLatLon0.09_PT009H.grib2 2026-04-26 08:42 439K
20260426T06Z_MSC_RDPS_WindSpeed_IsbL-0225_RLatLon0.09_PT009H.grib2 2026-04-26 08:42 447K
20260426T06Z_MSC_RDPS_WindSpeed_IsbL-0250_RLatLon0.09_PT009H.grib2 2026-04-26 08:42 452K
20260426T06Z_MSC_RDPS_WindSpeed_IsbL-0275_RLatLon0.09_PT009H.grib2 2026-04-26 08:42 472K
20260426T06Z_MSC_RDPS_WindSpeed_IsbL-0300_RLatLon0.09_PT009H.grib2 2026-04-26 08:42 469K
20260426T06Z_MSC_RDPS_WindSpeed_IsbL-0350_RLatLon0.09_PT009H.grib2 2026-04-26 08:42 479K
20260426T06Z_MSC_RDPS_WindSpeed_IsbL-0400_RLatLon0.09_PT009H.grib2 2026-04-26 08:42 460K
20260426T06Z_MSC_RDPS_WindSpeed_IsbL-0450_RLatLon0.09_PT009H.grib2 2026-04-26 08:42 458K
20260426T06Z_MSC_RDPS_WindSpeed_IsbL-0500_RLatLon0.09_PT009H.grib2 2026-04-26 08:42 458K
20260426T06Z_MSC_RDPS_WindSpeed_IsbL-0550_RLatLon0.09_PT009H.grib2 2026-04-26 08:42 578K
20260426T06Z_MSC_RDPS_WindSpeed_IsbL-0600_RLatLon0.09_PT009H.grib2 2026-04-26 08:42 591K
20260426T06Z_MSC_RDPS_WindSpeed_IsbL-0650_RLatLon0.09_PT009H.grib2 2026-04-26 08:42 658K
20260426T06Z_MSC_RDPS_WindSpeed_IsbL-0700_RLatLon0.09_PT009H.grib2 2026-04-26 08:42 682K
20260426T06Z_MSC_RDPS_WindSpeed_IsbL-0750_RLatLon0.09_PT009H.grib2 2026-04-26 08:42 711K
20260426T06Z_MSC_RDPS_WindSpeed_IsbL-0800_RLatLon0.09_PT009H.grib2 2026-04-26 08:42 763K
20260426T06Z_MSC_RDPS_WindSpeed_IsbL-0850_RLatLon0.09_PT009H.grib2 2026-04-26 08:42 822K
20260426T06Z_MSC_RDPS_WindSpeed_IsbL-0875_RLatLon0.09_PT009H.grib2 2026-04-26 08:42 843K
20260426T06Z_MSC_RDPS_WindSpeed_IsbL-0900_RLatLon0.09_PT009H.grib2 2026-04-26 08:42 856K
20260426T06Z_MSC_RDPS_WindSpeed_IsbL-0925_RLatLon0.09_PT009H.grib2 2026-04-26 08:42 865K
20260426T06Z_MSC_RDPS_WindSpeed_IsbL-0950_RLatLon0.09_PT009H.grib2 2026-04-26 08:42 862K
20260426T06Z_MSC_RDPS_WindSpeed_IsbL-0970_RLatLon0.09_PT009H.grib2 2026-04-26 08:42 860K
20260426T06Z_MSC_RDPS_WindSpeed_IsbL-0985_RLatLon0.09_PT009H.grib2 2026-04-26 08:42 860K
20260426T06Z_MSC_RDPS_WindSpeed_IsbL-1000_RLatLon0.09_PT009H.grib2 2026-04-26 08:42 856K
20260426T06Z_MSC_RDPS_WindSpeed_IsbL-1015_RLatLon0.09_PT009H.grib2 2026-04-26 08:42 851K
20260426T06Z_MSC_RDPS_WindU_AGL-10m_RLatLon0.09_PT009H.grib2 2026-04-26 08:42 438K
20260426T06Z_MSC_RDPS_WindU_AGL-120m_RLatLon0.09_PT009H.grib2 2026-04-26 08:42 421K
20260426T06Z_MSC_RDPS_WindU_AGL-40m_RLatLon0.09_PT009H.grib2 2026-04-26 08:42 542K
20260426T06Z_MSC_RDPS_WindU_AGL-80m_RLatLon0.09_PT009H.grib2 2026-04-26 08:42 423K
20260426T06Z_MSC_RDPS_WindU_IsbL-0001_RLatLon0.09_PT009H.grib2 2026-04-26 08:42 266K
20260426T06Z_MSC_RDPS_WindU_IsbL-0005_RLatLon0.09_PT009H.grib2 2026-04-26 08:42 285K
20260426T06Z_MSC_RDPS_WindU_IsbL-0010_RLatLon0.09_PT009H.grib2 2026-04-26 08:42 339K
20260426T06Z_MSC_RDPS_WindU_IsbL-0020_RLatLon0.09_PT009H.grib2 2026-04-26 08:42 355K
20260426T06Z_MSC_RDPS_WindU_IsbL-0030_RLatLon0.09_PT009H.grib2 2026-04-26 08:42 355K
20260426T06Z_MSC_RDPS_WindU_IsbL-0050_RLatLon0.09_PT009H.grib2 2026-04-26 08:42 356K
20260426T06Z_MSC_RDPS_WindU_IsbL-0100_RLatLon0.09_PT009H.grib2 2026-04-26 08:42 333K
20260426T06Z_MSC_RDPS_WindU_IsbL-0150_RLatLon0.09_PT009H.grib2 2026-04-26 08:42 391K
20260426T06Z_MSC_RDPS_WindU_IsbL-0175_RLatLon0.09_PT009H.grib2 2026-04-26 08:42 418K
20260426T06Z_MSC_RDPS_WindU_IsbL-0200_RLatLon0.09_PT009H.grib2 2026-04-26 08:42 433K
20260426T06Z_MSC_RDPS_WindU_IsbL-0225_RLatLon0.09_PT009H.grib2 2026-04-26 08:42 340K
20260426T06Z_MSC_RDPS_WindU_IsbL-0250_RLatLon0.09_PT009H.grib2 2026-04-26 08:42 343K
20260426T06Z_MSC_RDPS_WindU_IsbL-0275_RLatLon0.09_PT009H.grib2 2026-04-26 08:42 359K
20260426T06Z_MSC_RDPS_WindU_IsbL-0300_RLatLon0.09_PT009H.grib2 2026-04-26 08:42 356K
20260426T06Z_MSC_RDPS_WindU_IsbL-0350_RLatLon0.09_PT009H.grib2 2026-04-26 08:42 364K
20260426T06Z_MSC_RDPS_WindU_IsbL-0400_RLatLon0.09_PT009H.grib2 2026-04-26 08:42 465K
20260426T06Z_MSC_RDPS_WindU_IsbL-0450_RLatLon0.09_PT009H.grib2 2026-04-26 08:42 464K
20260426T06Z_MSC_RDPS_WindU_IsbL-0500_RLatLon0.09_PT009H.grib2 2026-04-26 08:42 465K
20260426T06Z_MSC_RDPS_WindU_IsbL-0550_RLatLon0.09_PT009H.grib2 2026-04-26 08:42 467K
20260426T06Z_MSC_RDPS_WindU_IsbL-0600_RLatLon0.09_PT009H.grib2 2026-04-26 08:42 479K
20260426T06Z_MSC_RDPS_WindU_IsbL-0650_RLatLon0.09_PT009H.grib2 2026-04-26 08:42 484K
20260426T06Z_MSC_RDPS_WindU_IsbL-0700_RLatLon0.09_PT009H.grib2 2026-04-26 08:42 506K
20260426T06Z_MSC_RDPS_WindU_IsbL-0750_RLatLon0.09_PT009H.grib2 2026-04-26 08:42 532K
20260426T06Z_MSC_RDPS_WindU_IsbL-0800_RLatLon0.09_PT009H.grib2 2026-04-26 08:42 577K
20260426T06Z_MSC_RDPS_WindU_IsbL-0850_RLatLon0.09_PT009H.grib2 2026-04-26 08:42 628K
20260426T06Z_MSC_RDPS_WindU_IsbL-0875_RLatLon0.09_PT009H.grib2 2026-04-26 08:42 647K
20260426T06Z_MSC_RDPS_WindU_IsbL-0900_RLatLon0.09_PT009H.grib2 2026-04-26 08:42 656K
20260426T06Z_MSC_RDPS_WindU_IsbL-0925_RLatLon0.09_PT009H.grib2 2026-04-26 08:42 661K
20260426T06Z_MSC_RDPS_WindU_IsbL-0950_RLatLon0.09_PT009H.grib2 2026-04-26 08:42 655K
20260426T06Z_MSC_RDPS_WindU_IsbL-0970_RLatLon0.09_PT009H.grib2 2026-04-26 08:42 652K
20260426T06Z_MSC_RDPS_WindU_IsbL-0985_RLatLon0.09_PT009H.grib2 2026-04-26 08:42 792K
20260426T06Z_MSC_RDPS_WindU_IsbL-1000_RLatLon0.09_PT009H.grib2 2026-04-26 08:42 794K
20260426T06Z_MSC_RDPS_WindU_IsbL-1015_RLatLon0.09_PT009H.grib2 2026-04-26 08:42 791K
20260426T06Z_MSC_RDPS_WindV_AGL-10m_RLatLon0.09_PT009H.grib2 2026-04-26 08:42 437K
20260426T06Z_MSC_RDPS_WindV_AGL-120m_RLatLon0.09_PT009H.grib2 2026-04-26 08:42 422K
20260426T06Z_MSC_RDPS_WindV_AGL-40m_RLatLon0.09_PT009H.grib2 2026-04-26 08:42 423K
20260426T06Z_MSC_RDPS_WindV_AGL-80m_RLatLon0.09_PT009H.grib2 2026-04-26 08:42 422K
20260426T06Z_MSC_RDPS_WindV_IsbL-0001_RLatLon0.09_PT009H.grib2 2026-04-26 08:42 264K
20260426T06Z_MSC_RDPS_WindV_IsbL-0005_RLatLon0.09_PT009H.grib2 2026-04-26 08:42 327K
20260426T06Z_MSC_RDPS_WindV_IsbL-0010_RLatLon0.09_PT009H.grib2 2026-04-26 08:42 339K
20260426T06Z_MSC_RDPS_WindV_IsbL-0020_RLatLon0.09_PT009H.grib2 2026-04-26 08:42 356K
20260426T06Z_MSC_RDPS_WindV_IsbL-0030_RLatLon0.09_PT009H.grib2 2026-04-26 08:42 355K
20260426T06Z_MSC_RDPS_WindV_IsbL-0050_RLatLon0.09_PT009H.grib2 2026-04-26 08:42 384K
20260426T06Z_MSC_RDPS_WindV_IsbL-0100_RLatLon0.09_PT009H.grib2 2026-04-26 08:42 328K
20260426T06Z_MSC_RDPS_WindV_IsbL-0150_RLatLon0.09_PT009H.grib2 2026-04-26 08:42 389K
20260426T06Z_MSC_RDPS_WindV_IsbL-0175_RLatLon0.09_PT009H.grib2 2026-04-26 08:42 415K
20260426T06Z_MSC_RDPS_WindV_IsbL-0200_RLatLon0.09_PT009H.grib2 2026-04-26 08:42 431K
20260426T06Z_MSC_RDPS_WindV_IsbL-0225_RLatLon0.09_PT009H.grib2 2026-04-26 08:42 338K
20260426T06Z_MSC_RDPS_WindV_IsbL-0250_RLatLon0.09_PT009H.grib2 2026-04-26 08:42 341K
20260426T06Z_MSC_RDPS_WindV_IsbL-0275_RLatLon0.09_PT009H.grib2 2026-04-26 08:42 357K
20260426T06Z_MSC_RDPS_WindV_IsbL-0300_RLatLon0.09_PT009H.grib2 2026-04-26 08:42 378K
20260426T06Z_MSC_RDPS_WindV_IsbL-0350_RLatLon0.09_PT009H.grib2 2026-04-26 08:42 359K
20260426T06Z_MSC_RDPS_WindV_IsbL-0400_RLatLon0.09_PT009H.grib2 2026-04-26 08:42 359K
20260426T06Z_MSC_RDPS_WindV_IsbL-0450_RLatLon0.09_PT009H.grib2 2026-04-26 08:42 358K
20260426T06Z_MSC_RDPS_WindV_IsbL-0500_RLatLon0.09_PT009H.grib2 2026-04-26 08:42 461K
20260426T06Z_MSC_RDPS_WindV_IsbL-0550_RLatLon0.09_PT009H.grib2 2026-04-26 08:42 463K
20260426T06Z_MSC_RDPS_WindV_IsbL-0600_RLatLon0.09_PT009H.grib2 2026-04-26 08:42 474K
20260426T06Z_MSC_RDPS_WindV_IsbL-0650_RLatLon0.09_PT009H.grib2 2026-04-26 08:42 494K
20260426T06Z_MSC_RDPS_WindV_IsbL-0700_RLatLon0.09_PT009H.grib2 2026-04-26 08:42 515K
20260426T06Z_MSC_RDPS_WindV_IsbL-0750_RLatLon0.09_PT009H.grib2 2026-04-26 08:42 541K
20260426T06Z_MSC_RDPS_WindV_IsbL-0800_RLatLon0.09_PT009H.grib2 2026-04-26 08:42 571K
20260426T06Z_MSC_RDPS_WindV_IsbL-0850_RLatLon0.09_PT009H.grib2 2026-04-26 08:42 623K
20260426T06Z_MSC_RDPS_WindV_IsbL-0875_RLatLon0.09_PT009H.grib2 2026-04-26 08:42 641K
20260426T06Z_MSC_RDPS_WindV_IsbL-0900_RLatLon0.09_PT009H.grib2 2026-04-26 08:42 651K
20260426T06Z_MSC_RDPS_WindV_IsbL-0925_RLatLon0.09_PT009H.grib2 2026-04-26 08:42 663K
20260426T06Z_MSC_RDPS_WindV_IsbL-0950_RLatLon0.09_PT009H.grib2 2026-04-26 08:42 659K
20260426T06Z_MSC_RDPS_WindV_IsbL-0970_RLatLon0.09_PT009H.grib2 2026-04-26 08:42 653K
20260426T06Z_MSC_RDPS_WindV_IsbL-0985_RLatLon0.09_PT009H.grib2 2026-04-26 08:42 654K
20260426T06Z_MSC_RDPS_WindV_IsbL-1000_RLatLon0.09_PT009H.grib2 2026-04-26 08:42 654K
20260426T06Z_MSC_RDPS_WindV_IsbL-1015_RLatLon0.09_PT009H.grib2 2026-04-26 08:42 788K